Hourly Data Report for December 30, 2003

SHERBROOKE A
QUEBEC

45°26'00.000" N
71°41'00.000" W
241.40 m
7028124
71610
YSC

Download Data

Hourly Data (December 2003)
Hourly Data Report for December 30, 2003
TIME
LST
Temp Definition
°C
Dew Point Definition
°C
Rel Hum Definition
%
Precip. Amount Definition
mm

Wind Dir Definition
10's deg

Wind Spd Definition
km/h
Visibility Definition
km
Stn Press Definition
kPa
Hmdx Definition


Wind Chill Definition


Weather Definition


00:00 1.8 -1.4 79   8 9 15.0 98.02      
01:00 2.3 -1.6 75   8 7 15.0 97.96      
02:00 1.4 -1.1 83   12 9 15.0 97.96     Rain
03:00 1.1 -0.7 88   6 6 15.0 97.80      
04:00 1.6 -1.0 83   4 4 15.0 97.68      
05:00 1.8 -1.2 80   5 7 15.0 97.53      
06:00 1.6 -1.0 83   5 6 15.0 97.46      
07:00 1.7 -1.2 81   7 13 15.0 97.39      
08:00 1.4 -0.9 85   8 11 24.1 97.33     Cloudy
09:00 1.6 -0.8 84   14 9 24.1 97.25     Cloudy
10:00 1.7 -0.6 85   6 4 24.1 97.09     Rain
11:00 1.8 0.3 90     0 19.3 96.90     Rain
12:00 2.6 0.2 84   23 6 19.3 96.88     Rain
13:00 2.5 0.7 88   23 11 12.9 96.88     Rain
14:00 2.8 1.3 90   23 13 12.9 96.92     Rain
15:00 3.0 0.8 85   25 26 19.3 97.05     Rain
16:00 1.8 -0.8 83   26 32 19.3 97.25     Snow,Ice Pellets
17:00 1.5 -2.8 73   26 30 24.1 97.40     Snow Showers
18:00 1.6 -3.7 68   26 35 15.0 97.54      
19:00 1.4 -3.8 68   27 32 15.0 97.68     Snow
20:00 1.2 -3.4 71   26 35 15.0 97.77      
21:00 1.1 -3.1 74   27 39 11.3 97.89     Snow
22:00 1.3 -3.6 70   27 37 15.0 97.98      
23:00 1.1 -3.6 71   27 37 15.0 98.05      

Notes on Data Quality.

Legend

  • E = Estimated
  • M = Missing
  • NA = Not Available*
  • [empty] = Indicates an unobserved value
Date modified: